Santa Ana, CA

2:50 PM PST on February 13, 2016 (GMT -0800)
John Wayne-Orange County

Weather History for KSNA - April, 2012

Change the Weather History Date:

Wednesday, April 18, 2012

  Actual Average Record
Temperature  
Mean Temperature 64 °F 62 °F  
Max Temperature 71 °F 69 °F 85 °F (1999)
Min Temperature 56 °F 54 °F 50 °F (2006)
Degree Days  
Heating Degree Days 1 4  
Month to date heating degree days 78 81  
Since 1 July heating degree days 1068 1168  
Cooling Degree Days 0 0  
Month to date cooling degree days 3 0  
Year to date cooling degree days 26 15  
Growing Degree Days 12 (Base 50)    
Moisture  
Dew Point 54 °F    
Average Humidity 70    
Maximum Humidity 86    
Minimum Humidity 53    
Precipitation  
Precipitation 0.00 in 0.04 in 0.68 in (1983)
Month to date precipitation 0.79 0.51  
Year to date precipitation 3.59 8.27  
Since 1 July precipitation 6.04  
Snow  
Snow 0.00 in - - ()
Month to date snowfall 0.0  
Year to date snowfall 0.0  
Since 1 July snowfall 0.0  
Snow Depth 0.00 in    
Sea Level Pressure  
Sea Level Pressure 29.97 in    
Wind  
Wind Speed 6 mph (SSW)    
Max Wind Speed 14 mph    
Max Gust Speed 17 mph    
Visibility 10 miles    
Events      
T = Trace of Precipitation, MM = Missing Value Source: NWS Daily Summary

Daily Weather History Graph

Daily Weather History Graph

Search for Another Location

Airport or City:

Trip Planner

Search our weather history database for the weather conditions in past years. The results will help you decide how hot, cold, wet, or windy it might be!

Date:

Astronomy

Apr. 18, 2012 Rise Set
Actual Time 6:16 AM PDT 7:25 PM PDT
Civil Twilight 5:50 AM PDT 7:51 PM PDT
Nautical Twilight 5:20 AM PDT 8:21 PM PDT
Astronomical Twilight 4:48 AM PDT 8:53 PM PDT
Moon 4:38 AM PDT (4/18) 5:24 PM PDT (4/18)
Length of Visible Light 14h 00m
Length of Day
13h 08m
Waning Crescent, 6% of the Moon is Illuminated
Apr 18
Waning Crescent
Apr 21
New
Apr 29
First Quarter
May 5
Full
May 12
Last Quarter

Hourly Weather History & Observations

Time (PDT) Temp. Dew Point Humidity Pressure Visibility Wind Dir Wind Speed Gust Speed Precip Events Conditions
12:53 AM 57.9 °F 53.1 °F 84% 30.00 in 9.0 mi Calm Calm - N/A   Clear
1:53 AM 57.0 °F 53.1 °F 87% 29.98 in 9.0 mi SSE 4.6 mph - N/A   Clear
2:53 AM 57.0 °F 52.0 °F 83% 29.97 in 10.0 mi South 3.5 mph - N/A   Clear
3:53 AM 57.0 °F 52.0 °F 83% 29.96 in 10.0 mi South 3.5 mph - N/A   Clear
4:53 AM 55.9 °F 52.0 °F 87% 29.97 in 10.0 mi South 4.6 mph - N/A   Clear
5:53 AM 55.9 °F 52.0 °F 87% 29.97 in 10.0 mi SSE 4.6 mph - N/A   Partly Cloudy
6:53 AM 57.0 °F 52.0 °F 83% 29.97 in 10.0 mi SE 4.6 mph - N/A   Partly Cloudy
7:53 AM 60.1 °F 55.0 °F 83% 29.99 in 10.0 mi SSW 4.6 mph - N/A   Scattered Clouds
8:00 AM 60.8 °F 53.6 °F 77% 29.99 in 10.0 mi West 4.6 mph - N/A   Scattered Clouds
8:53 AM 62.1 °F 54.0 °F 75% 30.00 in 10.0 mi SW 5.8 mph - N/A   Scattered Clouds
9:53 AM 64.9 °F 54.0 °F 68% 30.00 in 10.0 mi Calm Calm - N/A   Scattered Clouds
10:53 AM 68.0 °F 55.0 °F 63% 30.01 in 10.0 mi SSW 9.2 mph - N/A   Mostly Cloudy
11:53 AM 69.1 °F 54.0 °F 58% 30.01 in 10.0 mi SW 8.1 mph - N/A   Mostly Cloudy
12:53 PM 69.1 °F 53.1 °F 57% 29.99 in 10.0 mi SW 10.4 mph - N/A   Mostly Cloudy
1:53 PM 70.0 °F 52.0 °F 53% 29.97 in 10.0 mi WSW 9.2 mph - N/A   Mostly Cloudy
2:53 PM 70.0 °F 53.1 °F 55% 29.97 in 10.0 mi SW 10.4 mph - N/A   Mostly Cloudy
3:53 PM 68.0 °F 55.0 °F 63% 29.96 in 10.0 mi WSW 8.1 mph - N/A   Clear
4:43 PM 68.0 °F 55.4 °F 64% 29.94 in 10.0 mi South 9.2 mph - N/A   Scattered Clouds
4:53 PM 66.9 °F 55.0 °F 66% 29.94 in 10.0 mi SSW 10.4 mph - N/A   Scattered Clouds
5:53 PM 66.0 °F 54.0 °F 65% 29.93 in 10.0 mi SW 10.4 mph - N/A   Scattered Clouds
6:53 PM 62.1 °F 55.0 °F 78% 29.93 in 10.0 mi SW 10.4 mph - N/A   Scattered Clouds
7:53 PM 61.0 °F 55.0 °F 81% 29.94 in 10.0 mi SW 10.4 mph - N/A   Scattered Clouds
8:53 PM 60.1 °F 54.0 °F 80% 29.96 in 10.0 mi SW 5.8 mph - N/A   Scattered Clouds
9:53 PM 60.1 °F 54.0 °F 80% 29.97 in 10.0 mi Calm Calm - N/A   Scattered Clouds
10:53 PM 59.0 °F 54.0 °F 83% 29.98 in 10.0 mi SW 5.8 mph - N/A   Scattered Clouds
11:53 PM 57.0 °F 53.1 °F 87% 29.97 in 9.0 mi SSW 5.8 mph - N/A   Clear